Location: ?astrovice
(49.6513°N, 14.9287°E)
Time: 21:39:40
(UTC+00:00)

Daily predictions for brighter satellites

Satellite Brightness Start Highest point End
(mag) Time Altitude Azimuth Time Altitude Azimuth Time Altitude Azimuth
Cosmos 1634 Rocket 4.1 15:29:24 10° N 15:35:45 88° W 15:42:05 10° S
Cosmos 2219 3.2 15:30:31 10° SSW 15:36:06 76° ESE 15:41:45 10° NNE
H-2A R/B 3.7 15:33:23 10° SSW 15:38:02 37° W 15:42:39 10° NNW
Cosmos 2251 Rocket 4.3 15:33:47 10° N 15:38:31 31° NE 15:43:16 10° ESE
Cosmos 614 Rocket 4.4 15:34:00 10° NNW 15:39:12 70° WSW 15:44:20 10° SSE
Cosmos 405 Rocket 2.7 15:37:08 10° S 15:40:54 68° E 15:44:45 10° NNE
ISS -2.6 15:40:46 10° WNW 15:44:00 46° SSW 15:47:14 10° SE
SJ-11-01 4.2 15:42:15 10° SSE 15:46:54 78° ENE 15:51:34 10° NNW
Cosmos 1862 4.0 15:45:12 10° NNW 15:49:03 59° W 15:52:54 10° S
Lacrosse 5 3.8 15:47:05 10° SSE 15:49:23 13° ESE 15:51:42 10° E
Cosmos 724 4.5 15:44:55 10° SSW 15:51:05 72° ESE 15:57:11 10° NE
Cosmos 2142 Rocket 4.4 15:45:03 10° N 15:51:13 75° E 15:57:22 10° SSE
Cosmos 2082 3.8 15:45:44 10° SSW 15:51:16 64° ESE 15:56:51 10° NNE
Cosmos 2151 3.0 15:47:36 10° N 15:51:54 89° E 15:56:10 10° S
COSMO-SKYMED 1 4.4 15:52:20 10° ENE 15:54:26 13° E 15:56:34 10° ESE
Cosmos-2242 4.0 15:50:58 10° SSE 15:54:37 27° E 15:58:17 10° NNE
Lacrosse 4 Rocket 1.6 15:51:13 10° NNW 15:55:29 50° NE 15:59:38 10° SE
USA 234 4.3 15:50:31 10° ENE 15:56:09 30° SE 16:01:45 10° S
Cosmos 2058 Rocket 3.0 15:52:28 10° S 15:56:54 77° E 16:01:19 10° NNE
SL-08 RB Rocket 4.2 15:54:33 10° S 15:59:00 65° WSW 16:03:30 10° NNW
Cosmos 2279 Rocket 4.1 15:53:23 10° N 15:59:40 88° W 16:05:54 10° S
Cosmos 1726 Rocket 4.4 15:59:37 10° SSW 16:03:57 52° WNW 16:08:18 10° N
CZ-2D R/B 3.4 16:00:47 10° S 16:04:26 72° WSW 16:08:07 10° NNW
APEX 4.2 16:02:43 10° SSE 16:04:46 17° ESE 16:05:47 15° E
Cosmos 1812 3.3 16:06:36 10° SSE 16:09:53 32° E 16:13:12 10° NNE
AQUARIUS 4.1 16:08:59 10° SSE 16:13:23 62° ENE 16:17:48 10° N
YAOGAN 11 4.1 16:09:39 10° NNE 16:14:14 79° ESE 16:18:47 10° SSW
USA 276 2.3 16:13:42 10° SW 16:15:59 38° SSE 16:17:13 21° E
CZ-2C R/B 2.9 16:12:27 10° S 16:15:59 69° WSW 16:19:36 10° NNW
Cosmos 1437 Rocket 4.3 16:13:25 10° NNW 16:16:54 38° W 16:20:24 10° SSW
Cosmos 2263 Rocket 2.1 16:11:54 10° SSW 16:17:28 86° ESE 16:23:06 10° NNE
Cosmos 1844 Rocket 3.9 16:13:58 10° SSE 16:18:03 21° E 16:20:21 17° ENE
CORIOLIS 4.1 16:15:26 10° SSE 16:20:48 88° ENE 16:26:13 10° NNW
Nadezhda 4 Rocket 4.0 16:15:00 10° S 16:21:00 59° E 16:27:00 10° NNE
ERS-2 4.1 16:20:01 10° SSW 16:22:31 25° W 16:25:02 10° NW
USA 307 3.6 16:21:16 10° WNW 16:25:00 48° SW 16:28:39 10° SE
Cosmos 2227 Rocket 3.5 16:20:43 10° WSW 16:25:55 36° NW 16:31:08 10° NNE
Meteor 1-20 Rocket 4.1 16:21:40 10° N 16:27:14 69° ENE 16:32:53 10° SSE
Cosmos 1140 Rocket 3.4 16:22:47 10° NNW 16:28:01 83° ENE 16:33:10 10° SSE
YAOGAN 1 3.9 16:29:59 20° NE 16:29:59 20° NE 16:32:33 10° NNE
ADEOS 4.1 16:26:15 10° SE 16:30:56 35° ENE 16:35:38 10° N
Cosmos 1933 4.3 16:27:59 10° SSE 16:31:21 26° E 16:32:19 24° ENE
Cosmos 1666 3.4 16:30:42 10° NNW 16:34:09 50° W 16:37:34 10° S
Cosmos 1603 3.6 16:32:24 10° NNW 16:38:08 79° ENE 16:43:47 10° SSE
DMSP B5D2-2 4.3 16:33:02 10° N 16:38:15 74° WNW 16:43:27 10° SSW
CBERS 1 LM4 rocket 4.3 16:36:25 10° SSE 16:41:07 57° ENE 16:45:45 10° N
Meteor 1-31 Rocket 3.3 16:39:16 10° S 16:42:55 59° W 16:46:36 10° NNW
SKYMED 2 4.1 16:40:54 23° NE 16:42:58 36° E 16:46:59 10° SSE
CZ-4B R/B 4.1 16:44:59 25° NE 16:44:59 25° NE 16:47:37 10° N
SL-08 R/B 4.0 16:46:50 28° ENE 16:47:41 30° E 16:51:46 10° SSE
ATLAS CENTAUR R/B 3.4 16:47:31 10° WNW 16:51:47 56° SW 16:59:57 10° SE
RESURS DK-1 2.9 16:52:27 10° NNW 16:56:12 36° NE 16:56:12 36° NE
USA 305 4.1 16:53:07 10° WNW 16:56:39 36° SW 17:00:09 10° SSE
Cosmos 676 Rocket 4.3 16:52:02 10° NNW 16:57:07 43° ENE 16:59:42 25° ESE
CZ-4B R/B 3.5 16:53:40 10° SSE 16:58:44 83° WSW 17:03:42 10° NNW
Cosmos 1782 2.6 16:57:51 10° S 17:01:43 64° E 17:03:03 37° NNE
Helios 1A 2.8 16:58:42 19° NNE 17:01:43 82° ESE 17:05:51 10° SSW
Cosmos 1943 4.0 16:56:30 10° NW 17:01:57 52° WSW 17:07:24 10° S
Cosmos 1812 Rocket 3.5 16:57:47 10° SSW 17:02:07 82° W 17:06:22 11° N
ATLAS 2AS CENTAUR R/B 2.6 16:57:50 10° NW 17:04:47 65° NE 17:09:09 23° ESE
NOAA 6 4.0 17:01:26 10° SSE 17:06:34 90° SSE 17:11:44 10° NNW
Radarsat Rocket 4.0 17:07:14 10° SSE 17:13:04 84° WSW 17:19:16 10° NNW
Cosmos 407 Rocket 4.0 17:08:12 10° NNW 17:13:17 58° WSW 17:18:17 10° S
CZ-4B DEB 4.4 17:11:06 19° SE 17:14:54 48° ENE 17:20:14 10° N
Cosmos 2297 Rocket 4.5 17:11:45 10° WNW 17:14:58 15° NNW 17:18:11 10° N
ADEOS Rocket 4.4 17:22:48 20° NNE 17:22:48 20° NNE 17:25:04 10° N
Cosmos 2251 Rocket 4.5 17:15:52 10° NNW 17:21:00 49° WSW 17:26:08 10° S
Cosmos 220 Rocket 4.0 17:20:37 10° NNW 17:24:57 78° WSW 17:27:54 19° SSE
SME Rocket 4.3 17:21:44 10° SSE 17:27:32 73° ENE 17:36:39 10° NNW
Cosmos 1954 Rocket 3.8 17:22:41 10° NNW 17:28:00 83° ENE 17:31:28 22° SSE
Cosmos 2056 Rocket 3.5 17:22:50 10° S 17:28:06 59° ESE 17:28:45 55° ENE
COSMOS 2455 4.0 17:23:37 10° SSE 17:27:03 26° SE 17:27:03 26° SE
Timation 2 Rocket 3.8 17:23:14 10° SSW 17:29:06 64° ESE 17:30:41 47° ENE
Cosmos 1844 3.7 17:23:39 10° SSW 17:29:20 62° ESE 17:30:24 52° ENE
COSMO-SKYMED 1 2.6 17:29:30 37° N 17:31:09 77° WNW 17:35:29 10° SSW
Lacrosse 5 1.8 17:26:30 10° SW 17:31:28 60° SE 17:31:43 59° SE
Lacrosse 4 Rocket 3.9 17:30:11 10° WNW 17:33:36 23° WSW 17:36:57 10° SSW
Cosmos 1833 Rocket 3.8 17:30:10 10° NNW 17:33:48 29° NNE 17:33:48 29° NNE
Meteor 1-14 Rocket 4.4 17:31:35 10° N 17:36:08 50° NE 17:36:08 50° NE
Cosmos 1553 Rocket 3.8 17:32:53 10° N 17:39:15 79° E 17:45:28 10° SSE
USA 234 3.1 17:37:35 46° ENE 17:39:46 84° SSE 17:46:19 10° SW
PAYLOAD B 4.4 17:42:07 54° NE 17:42:07 54° NE 17:46:53 10° N
Cosmos 2221 3.0 17:37:58 10° S 17:41:02 48° S 17:41:02 48° S
Cosmos 2344 3.4 17:36:18 10° SW 17:43:47 82° NW 17:47:05 37° NE
Cosmos 1818 3.8 17:42:11 10° SW 17:47:35 67° NW 17:48:46 52° N
Cosmos 2026 Rocket 4.4 17:42:22 10° SSW 17:48:35 64° WNW 17:54:55 10° N
Cosmos 1371 Rocket 3.9 17:47:08 10° SSW 17:52:23 88° WNW 17:52:32 85° N
CZ-4B R/B 4.4 18:01:43 31° N 18:01:43 31° N 18:04:34 10° N
Cosmos 1844 Rocket 2.8 17:55:48 10° SW 18:01:21 71° WNW 18:02:02 64° NNW
Meteor 1-26 Rocket 4.4 17:56:20 10° SSW 18:01:52 70° WNW 18:04:18 35° N
Cosmos 2263 Rocket 4.1 17:57:46 10° W 18:02:08 23° NW 18:05:03 16° N
YAOGAN 1 4.2 18:07:02 29° NW 18:07:02 29° NW 18:09:18 10° NNW
Cosmos 1420 Rocket 4.3 18:03:10 10° SW 18:08:24 65° WNW 18:08:27 65° WNW
Cosmos 2082 Rocket 4.2 18:08:03 10° NNW 18:09:22 15° N 18:09:22 15° N
Cosmos 1624 Rocket 4.5 18:11:04 10° SW 18:15:39 57° W 18:15:39 57° W
ATLAS 2AS CENTAUR R/B 3.9 18:49:14 10° NW 18:55:18 35° WSW 18:56:38 32° SW
Lacrosse 5 4.4 19:09:42 10° W 19:10:56 17° W 19:10:56 17° W
USA 234 4.4 19:24:56 37° WNW 19:24:56 37° WNW 19:28:54 10° W
